Time,TemperatureF,DewpointF,PressureIn,WindDirection,WindDirectionDegrees,WindSpeedMPH,WindSpeedGustMPH,Humidity,HourlyPrecipIn,Conditions,Clouds,dailyrainin,SoftwareType,DateUTC
2013-06-13 00:11:00,75.9,75.0,30.03,WSW,241,0.0,-999.0,96,-99.99,,,0.36,weatherlink.com 1.10,2013-06-13 04:11:00,
2013-06-13 00:26:00,75.7,75.0,30.02,WSW,241,0.0,-999.0,96,-99.99,,,0.36,weatherlink.com 1.10,2013-06-13 04:26:00,
2013-06-13 00:41:00,76.1,75.0,30.02,WSW,241,0.0,-999.0,96,-99.99,,,0.36,weatherlink.com 1.10,2013-06-13 04:41:00,
2013-06-13 00:56:00,75.7,75.0,30.02,WSW,241,0.0,-999.0,96,-99.99,,,0.00,weatherlink.com 1.10,2013-06-13 04:56:00,
2013-06-13 01:11:00,75.9,75.0,30.01,WSW,241,0.0,-999.0,97,-99.99,,,0.00,weatherlink.com 1.10,2013-06-13 05:11:00,
2013-06-13 01:26:00,75.5,74.0,30.01,WSW,241,0.0,-999.0,96,-99.99,,,0.00,weatherlink.com 1.10,2013-06-13 05:26:00,
2013-06-13 01:41:00,75.3,74.0,30.01,WSW,241,0.0,-999.0,97,-99.99,,,0.00,weatherlink.com 1.10,2013-06-13 05:41:00,
2013-06-13 01:56:00,75.4,74.0,30.01,WSW,242,0.0,-999.0,96,-99.99,,,0.00,weatherlink.com 1.10,2013-06-13 05:56:00,
2013-06-13 02:11:00,74.6,73.0,30.00,WSW,241,0.0,-999.0,96,-99.99,,,0.00,weatherlink.com 1.10,2013-06-13 06:11:00,
2013-06-13 02:26:00,75.0,74.0,30.00,WSW,242,0.0,-999.0,97,-99.99,,,0.00,weatherlink.com 1.10,2013-06-13 06:26:00,
2013-06-13 02:41:00,74.8,74.0,30.00,WSW,242,0.0,-999.0,96,-99.99,,,0.00,weatherlink.com 1.10,2013-06-13 06:41:00,
2013-06-13 02:56:00,74.2,73.0,29.99,WSW,242,0.0,-999.0,96,-99.99,,,0.00,weatherlink.com 1.10,2013-06-13 06:56:00,
2013-06-13 03:11:00,74.1,73.0,29.99,WSW,242,0.0,-999.0,97,-99.99,,,0.00,weatherlink.com 1.10,2013-06-13 07:11:00,
2013-06-13 03:27:00,74.5,74.0,30.00,WSW,242,0.0,-999.0,97,-99.99,,,0.00,weatherlink.com 1.10,2013-06-13 07:27:00,
2013-06-13 03:42:00,74.5,74.0,30.00,WSW,242,0.0,-999.0,97,-99.99,,,0.00,weatherlink.com 1.10,2013-06-13 07:42:00,
2013-06-13 03:57:00,74.8,74.0,30.00,WSW,242,0.0,-999.0,97,-99.99,,,0.00,weatherlink.com 1.10,2013-06-13 07:57:00,
2013-06-13 04:12:00,74.5,74.0,30.00,WSW,242,0.0,-999.0,97,-99.99,,,0.00,weatherlink.com 1.10,2013-06-13 08:12:00,
2013-06-13 04:27:00,74.7,74.0,30.00,WSW,242,0.0,-999.0,97,-99.99,,,0.00,weatherlink.com 1.10,2013-06-13 08:27:00,
2013-06-13 04:42:00,74.6,74.0,30.00,WSW,242,0.0,-999.0,97,-99.99,,,0.00,weatherlink.com 1.10,2013-06-13 08:42:00,
2013-06-13 04:57:00,74.6,74.0,30.00,WSW,242,0.0,-999.0,97,-99.99,,,0.00,weatherlink.com 1.10,2013-06-13 08:57:00,
2013-06-13 05:27:00,74.7,74.0,29.99,WSW,242,0.0,-999.0,98,-99.99,,,0.00,weatherlink.com 1.10,2013-06-13 09:27:00,
2013-06-13 05:42:00,74.6,74.0,29.99,WSW,242,0.0,-999.0,97,-99.99,,,0.00,weatherlink.com 1.10,2013-06-13 09:42:00,
2013-06-13 05:57:00,74.5,74.0,29.99,WSW,242,0.0,-999.0,98,-99.99,,,0.00,weatherlink.com 1.10,2013-06-13 09:57:00,
2013-06-13 06:12:00,74.8,74.0,29.99,WSW,242,0.0,-999.0,97,-99.99,,,0.00,weatherlink.com 1.10,2013-06-13 10:12:00,
2013-06-13 06:27:00,74.8,74.0,29.99,WSW,242,0.0,-999.0,98,-99.99,,,0.00,weatherlink.com 1.10,2013-06-13 10:27:00,
2013-06-13 06:42:00,75.0,74.0,29.99,WSW,242,0.0,-999.0,98,-99.99,,,0.00,weatherlink.com 1.10,2013-06-13 10:42:00,
2013-06-13 06:57:00,75.2,75.0,30.00,WSW,242,0.0,-999.0,98,-99.99,,,0.00,weatherlink.com 1.10,2013-06-13 10:57:00,
2013-06-13 07:12:00,75.5,75.0,30.00,WSW,242,0.0,-999.0,98,-99.99,,,0.00,weatherlink.com 1.10,2013-06-13 11:12:00,
2013-06-13 07:27:00,75.6,75.0,30.00,WSW,242,0.0,-999.0,98,-99.99,,,0.00,weatherlink.com 1.10,2013-06-13 11:27:00,
2013-06-13 07:42:00,76.0,75.0,30.00,WSW,242,0.0,-999.0,98,-99.99,,,0.00,weatherlink.com 1.10,2013-06-13 11:42:00,
2013-06-13 07:57:00,76.4,76.0,30.01,WSW,242,0.0,-999.0,98,-99.99,,,0.00,weatherlink.com 1.10,2013-06-13 11:57:00,
2013-06-13 08:12:00,76.8,76.0,30.01,WSW,242,0.0,-999.0,98,-99.99,,,0.00,weatherlink.com 1.10,2013-06-13 12:12:00,
2013-06-13 08:27:00,77.1,77.0,30.02,WSW,242,0.0,-999.0,98,-99.99,,,0.00,weatherlink.com 1.10,2013-06-13 12:27:00,
2013-06-13 08:42:00,77.7,77.0,30.02,WSW,242,0.0,-999.0,97,-99.99,,,0.00,weatherlink.com 1.10,2013-06-13 12:42:00,
2013-06-13 08:57:00,77.9,77.0,30.02,SW,225,1.0,-999.0,97,-99.99,,,0.00,weatherlink.com 1.10,2013-06-13 12:57:00,
2013-06-13 09:12:00,78.4,78.0,30.03,SW,234,0.0,-999.0,97,-99.99,,,0.00,weatherlink.com 1.10,2013-06-13 13:12:00,
2013-06-13 09:27:00,79.3,78.0,30.03,West,263,0.0,-999.0,95,-99.99,,,0.00,weatherlink.com 1.10,2013-06-13 13:27:00,
2013-06-13 09:42:00,81.6,80.0,30.03,East,88,0.0,-999.0,93,-99.99,,,0.00,weatherlink.com 1.10,2013-06-13 13:42:00,
2013-06-13 09:57:00,84.3,78.0,30.03,WNW,298,1.0,-999.0,82,-99.99,,,0.00,weatherlink.com 1.10,2013-06-13 13:57:00,
2013-06-13 10:12:00,83.6,78.0,30.04,WNW,302,0.0,-999.0,84,-99.99,,,0.00,weatherlink.com 1.10,2013-06-13 14:12:00,
2013-06-13 10:27:00,85.2,78.0,30.04,SSE,149,1.0,-999.0,78,-99.99,,,0.00,weatherlink.com 1.10,2013-06-13 14:27:00,
2013-06-13 10:42:00,86.7,78.0,30.03,SW,215,0.0,-999.0,75,-99.99,,,0.00,weatherlink.com 1.10,2013-06-13 14:42:00,
2013-06-13 10:57:00,87.8,77.0,30.03,NW,324,1.0,-999.0,71,-99.99,,,0.00,weatherlink.com 1.10,2013-06-13 14:57:00,
2013-06-13 11:12:00,86.3,77.0,30.03,SSE,157,1.0,-999.0,73,-99.99,,,0.00,weatherlink.com 1.10,2013-06-13 15:12:00,
2013-06-13 11:27:00,85.5,78.0,30.03,SE,134,0.0,-999.0,77,-99.99,,,0.01,weatherlink.com 1.10,2013-06-13 15:27:00,
2013-06-13 11:42:00,81.1,75.0,30.03,SE,136,5.0,-999.0,81,-99.99,,,0.12,weatherlink.com 1.10,2013-06-13 15:42:00,
2013-06-13 11:57:00,80.8,77.0,30.03,SE,125,1.0,-999.0,87,-99.99,,,0.14,weatherlink.com 1.10,2013-06-13 15:57:00,
2013-06-13 12:12:00,80.1,76.0,30.04,SSW,195,4.0,-999.0,86,-99.99,,,0.14,weatherlink.com 1.10,2013-06-13 16:12:00,
2013-06-13 12:27:00,79.1,73.0,30.04,SSE,154,1.0,-999.0,82,-99.99,,,0.14,weatherlink.com 1.10,2013-06-13 16:27:00,
2013-06-13 12:42:00,78.5,74.0,30.03,ESE,123,0.0,-999.0,87,-99.99,,,0.16,weatherlink.com 1.10,2013-06-13 16:42:00,
2013-06-13 12:57:00,78.9,76.0,30.03,ESE,115,0.0,-999.0,89,-99.99,,,0.17,weatherlink.com 1.10,2013-06-13 16:57:00,
2013-06-13 13:12:00,79.5,76.0,30.02,SE,137,0.0,-999.0,88,-99.99,,,0.17,weatherlink.com 1.10,2013-06-13 17:12:00,
2013-06-13 13:27:00,80.1,76.0,30.01,SSE,165,0.0,-999.0,87,-99.99,,,0.17,weatherlink.com 1.10,2013-06-13 17:27:00,
2013-06-13 13:42:00,81.4,77.0,30.02,South,173,0.0,-999.0,85,-99.99,,,0.17,weatherlink.com 1.10,2013-06-13 17:42:00,
2013-06-13 13:57:00,83.4,77.0,30.00,SSE,162,0.0,-999.0,80,-99.99,,,0.17,weatherlink.com 1.10,2013-06-13 17:57:00,
2013-06-13 14:12:00,87.0,78.0,30.00,SSW,210,2.0,-999.0,75,-99.99,,,0.17,weatherlink.com 1.10,2013-06-13 18:12:00,
2013-06-13 14:27:00,88.5,78.0,30.00,SW,230,3.0,-999.0,70,-99.99,,,0.17,weatherlink.com 1.10,2013-06-13 18:27:00,
2013-06-13 14:42:00,89.3,77.0,29.99,South,190,0.0,-999.0,66,-99.99,,,0.17,weatherlink.com 1.10,2013-06-13 18:42:00,
2013-06-13 14:57:00,89.0,74.0,29.98,WNW,289,2.0,-999.0,62,-99.99,,,0.17,weatherlink.com 1.10,2013-06-13 18:57:00,
2013-06-13 15:12:00,89.4,76.0,29.98,West,259,1.0,-999.0,65,-99.99,,,0.17,weatherlink.com 1.10,2013-06-13 19:12:00,
2013-06-13 15:27:00,91.2,77.0,29.98,SW,217,1.0,-999.0,63,-99.99,,,0.17,weatherlink.com 1.10,2013-06-13 19:27:00,
2013-06-13 15:43:00,91.7,76.0,29.97,SSW,200,2.0,-999.0,60,-99.99,,,0.17,weatherlink.com 1.10,2013-06-13 19:43:00,
2013-06-13 15:58:00,91.3,75.0,29.96,WSW,237,0.0,-999.0,60,-99.99,,,0.17,weatherlink.com 1.10,2013-06-13 19:58:00,
2013-06-13 16:13:00,91.0,74.0,29.96,WNW,284,2.0,-999.0,58,-99.99,,,0.17,weatherlink.com 1.10,2013-06-13 20:13:00,
2013-06-13 16:28:00,90.0,75.0,29.96,South,175,2.0,-999.0,61,-99.99,,,0.17,weatherlink.com 1.10,2013-06-13 20:28:00,
2013-06-13 16:43:00,86.6,75.0,29.96,SW,217,0.0,-999.0,68,-99.99,,,0.17,weatherlink.com 1.10,2013-06-13 20:43:00,
2013-06-13 16:58:00,84.7,75.0,29.95,West,277,1.0,-999.0,72,-99.99,,,0.17,weatherlink.com 1.10,2013-06-13 20:58:00,
2013-06-13 17:13:00,83.8,75.0,29.94,SW,214,0.0,-999.0,74,-99.99,,,0.17,weatherlink.com 1.10,2013-06-13 21:13:00,
2013-06-13 17:28:00,83.6,75.0,29.94,SW,221,0.0,-999.0,75,-99.99,,,0.17,weatherlink.com 1.10,2013-06-13 21:28:00,
2013-06-13 17:43:00,83.4,75.0,29.94,NW,323,1.0,-999.0,76,-99.99,,,0.17,weatherlink.com 1.10,2013-06-13 21:43:00,
2013-06-13 17:58:00,83.2,75.0,29.95,SW,217,0.0,-999.0,75,-99.99,,,0.17,weatherlink.com 1.10,2013-06-13 21:58:00,
2013-06-13 18:13:00,83.2,75.0,29.94,SSW,207,0.0,-999.0,75,-99.99,,,0.17,weatherlink.com 1.10,2013-06-13 22:13:00,
2013-06-13 18:28:00,83.1,74.0,29.94,South,173,0.0,-999.0,75,-99.99,,,0.17,weatherlink.com 1.10,2013-06-13 22:28:00,
2013-06-13 18:43:00,83.4,74.0,29.94,South,187,0.0,-999.0,74,-99.99,,,0.17,weatherlink.com 1.10,2013-06-13 22:43:00,
2013-06-13 18:58:00,83.5,74.0,29.94,SW,233,0.0,-999.0,73,-99.99,,,0.17,weatherlink.com 1.10,2013-06-13 22:58:00,
2013-06-13 19:13:00,83.1,74.0,29.94,SSW,209,0.0,-999.0,75,-99.99,,,0.17,weatherlink.com 1.10,2013-06-13 23:13:00,
2013-06-13 19:28:00,82.6,74.0,29.93,West,268,0.0,-999.0,76,-99.99,,,0.17,weatherlink.com 1.10,2013-06-13 23:28:00,
2013-06-13 19:43:00,82.2,74.0,29.93,SSW,194,0.0,-999.0,76,-99.99,,,0.17,weatherlink.com 1.10,2013-06-13 23:43:00,
2013-06-13 19:58:00,81.6,73.0,29.93,SW,217,0.0,-999.0,76,-99.99,,,0.17,weatherlink.com 1.10,2013-06-13 23:58:00,
2013-06-13 20:13:00,81.1,73.0,29.94,SSW,207,0.0,-999.0,77,-99.99,,,0.17,weatherlink.com 1.10,2013-06-14 00:13:00,
2013-06-13 20:28:00,80.6,74.0,29.94,SSW,213,0.0,-999.0,79,-99.99,,,0.17,weatherlink.com 1.10,2013-06-14 00:28:00,
2013-06-13 20:43:00,80.0,74.0,29.95,SSW,213,0.0,-999.0,81,-99.99,,,0.17,weatherlink.com 1.10,2013-06-14 00:43:00,
2013-06-13 20:58:00,79.6,74.0,29.95,West,273,0.0,-999.0,82,-99.99,,,0.17,weatherlink.com 1.10,2013-06-14 00:58:00,
2013-06-13 21:13:00,79.0,74.0,29.96,West,273,0.0,-999.0,83,-99.99,,,0.17,weatherlink.com 1.10,2013-06-14 01:13:00,
2013-06-13 21:28:00,78.6,73.0,29.96,SSW,205,0.0,-999.0,82,-99.99,,,0.17,weatherlink.com 1.10,2013-06-14 01:28:00,
2013-06-13 21:43:00,78.6,73.0,29.96,WSW,247,0.0,-999.0,82,-99.99,,,0.17,weatherlink.com 1.10,2013-06-14 01:43:00,
2013-06-13 21:58:00,78.1,73.0,29.95,SW,215,0.0,-999.0,83,-99.99,,,0.17,weatherlink.com 1.10,2013-06-14 01:58:00,
2013-06-13 22:13:00,77.7,73.0,29.96,SW,215,0.0,-999.0,84,-99.99,,,0.17,weatherlink.com 1.10,2013-06-14 02:13:00,
2013-06-13 22:28:00,77.2,72.0,29.96,SW,215,0.0,-999.0,85,-99.99,,,0.17,weatherlink.com 1.10,2013-06-14 02:28:00,
2013-06-13 22:43:00,76.8,72.0,29.96,SW,215,0.0,-999.0,85,-99.99,,,0.17,weatherlink.com 1.10,2013-06-14 02:43:00,
2013-06-13 22:59:00,76.6,73.0,29.96,SW,216,0.0,-999.0,87,-99.99,,,0.17,weatherlink.com 1.10,2013-06-14 02:59:00,
2013-06-13 23:13:00,76.3,72.0,29.96,SW,215,0.0,-999.0,87,-99.99,,,0.17,weatherlink.com 1.10,2013-06-14 03:13:00,
2013-06-13 23:28:00,75.8,72.0,29.96,SW,215,0.0,-999.0,88,-99.99,,,0.17,weatherlink.com 1.10,2013-06-14 03:28:00,
2013-06-13 23:43:00,76.0,73.0,29.95,SW,216,0.0,-999.0,89,-99.99,,,0.17,weatherlink.com 1.10,2013-06-14 03:43:00,
2013-06-13 23:58:00,75.8,72.0,29.95,South,172,0.0,-999.0,88,-99.99,,,0.17,weatherlink.com 1.10,2013-06-14 03:58:00,